[[[{"header":{"parameterUnit":"kt","parameterCategory":2,"dx":1,"dy":1,"la1":30.253999710083008,"la2":30.299108505249023,"lo1":-89.0895004272461,"lo2":-89.04439544677734,"nx":28,"ny":28,"refTime":"2022-10-19T09:00:00:Z","depth":0,"parameterNumber":1,"parameterNumberName":"U-component_of_WINDS"},"data":[-1.9828,-2.0069,-2.0069,-2.0344,-2.039,-2.058,-2.0648,-2.0736,-2.0806,-2.1032,-2.1163,-2.1188,-2.126,-2.1417,-2.156,-2.1569,-2.1635,-2.1718,-2.1717,-2.1334,-2.1282,-2.1232,-2.1178,-2.1729,-2.173,-2.2119,-2.2122,-2.2125,-1.9547,-1.9595,-1.9739,-1.988,-2.0004,-1.9922,-2.0027,-2.0139,-2.0311,-2.0398,-2.0526,-2.0726,-2.0884,-2.0929,-2.1082,-2.1198,-2.1173,-2.124,-2.1239,-2.1254,-2.084,-2.0783,-2.1259,-2.1259,-2.1258,-2.1258,-2.1258,-2.1258,-1.9037,-1.918,-1.9266,-1.9423,-1.9493,-1.9587,-1.9726,-1.9753,-1.9895,-2.0054,-2.0025,-2.0221,-2.031,-2.0496,-2.0558,-2.0712,-2.0639,-2.0716,-2.0738,-2.0761,-2.0789,-2.0244,-2.0736,-2.0735,-2.0734,-2.0733,-2.0732,0,-1.8668,-1.8659,-1.8797,-1.8936,-1.905,-1.9158,-1.9257,-1.9342,-1.9323,-1.9442,-1.9615,-1.9715,-1.9912,-2.0078,-2.022,-2.0271,-2.0209,-2.0197,-2.0253,-2.0279,-2.0281,-2.0294,-1.9631,-2.0187,-2.0182,-2.0179,-2.0176,-2.0174,-1.8165,-1.8329,-1.8417,-1.8515,-1.8569,-1.8726,-1.8821,-1.8791,-1.8894,-1.9012,-1.9141,-1.9303,-1.9433,-1.971,-1.9746,-1.9895,-1.9868,-2.0081,-1.9891,-1.9904,-1.9886,-1.9882,-1.9902,-2.0125,-2.0131,-2.0136,-2.014,0,-1.7884,-1.7883,-1.8138,-1.821,-1.8233,-1.8408,-1.8471,-1.8612,-1.8623,-1.8822,-1.8866,-1.8888,-1.9059,-1.9059,-1.9253,-1.9249,-1.9546,-1.9508,-1.9516,-1.9513,-1.9712,-1.9698,-2.0339,-2.0426,-1.984,-1.9846,-1.985,0,-1.7461,-1.7677,-1.7666,-1.7814,-1.8053,-1.8019,-1.8258,-1.8293,-1.8368,-1.8524,-1.8445,-1.8594,-1.8569,-1.8718,-1.8712,-1.8952,-1.8985,-1.9001,-1.9,-1.9017,-1.9016,-1.9082,-1.9061,-1.8975,-1.8972,-1.8969,-1.8966,0,-1.7031,-1.7275,-1.7513,-1.757,-1.767,-1.7783,-1.7831,-1.7915,-1.8008,-1.8128,-1.819,-1.8331,-1.8413,-1.8524,-1.8518,-1.839,-1.8807,-1.863,-1.8825,-1.8826,-1.8929,-1.8925,-1.9479,-1.8962,-1.8961,-1.896,-1.8959,0,-1.6695,-1.6814,-1.7156,-1.724,-1.7306,-1.7462,-1.7601,-1.7733,-1.7828,-1.7834,-1.7929,-1.7881,-1.8083,-1.7909,-1.8191,-1.8027,-1.8112,-1.8142,-1.8156,-1.8187,-1.7995,-1.8323,-1.884,-1.8901,-1.8198,-1.8191,-1.8186,0,-1.6208,-1.6552,-1.6527,-1.6853,-1.7014,-1.6919,-1.7091,-1.7177,-1.72,-1.7341,-1.7364,-1.7527,-1.7395,-1.7448,-1.7584,-1.7621,-1.7832,-1.759,-1.7807,-1.7815,-1.7796,-1.8268,-1.8353,-1.8724,-1.8104,-1.8113,-1.8119,0,-1.5833,-1.5952,-1.6012,-1.6078,-1.6184,-1.6317,-1.6513,-1.6665,-1.6761,-1.6863,-1.7033,-1.7254,-1.7168,-1.7254,-1.7231,-1.7375,-1.7687,-1.7264,-1.7267,-1.735,-1.8059,-1.8139,-1.8201,-1.7641,-1.765,-1.7658,-1.8054,0,-1.5344,-1.5514,-1.5672,-1.5816,-1.5917,-1.6119,-1.612,-1.6227,-1.6194,-1.6215,-1.6459,-1.6531,-1.669,-1.6756,-1.6726,-1.7052,-1.7001,-1.6907,-1.6748,-1.7053,-1.7185,-1.7238,-1.6552,-1.6547,-1.6543,-1.6539,0,0,-1.4885,-1.513,-1.5097,-1.5286,-1.5372,-1.5273,-1.549,-1.5561,-1.5709,-1.5772,-1.5679,-1.6007,-1.6072,-1.6371,-1.6465,-1.6525,-1.6588,-1.6481,-1.6905,-1.6946,-1.6984,-1.7124,-1.7178,-1.6532,-1.6531,-1.6529,-1.6528,0,-1.4709,-1.4768,-1.498,-1.5052,-1.5157,-1.5167,-1.5217,-1.5306,-1.5331,-1.5566,-1.5488,-1.5634,-1.5896,-1.5978,-1.6054,-1.6441,-1.6379,-1.6487,-1.6699,-1.6864,-1.691,-1.6951,-1.7098,-1.715,-1.6518,-1.6519,-1.6519,0,-1.4349,-1.4411,-1.4512,-1.4696,-1.4765,-1.4931,-1.4761,-1.4942,-1.5067,-1.4956,-1.5195,-1.5236,-1.5344,-1.5621,-1.5746,-1.5668,-1.6191,-1.6023,-1.6048,-1.6066,-1.6228,-1.6283,-1.6332,-1.5687,-1.5684,-1.5681,0,0,-1.4198,-1.4354,-1.4416,-1.4659,-1.4707,-1.4726,-1.4814,-1.4793,-1.4889,-1.4928,-1.4982,-1.508,-1.5233,-1.5334,-1.5477,-1.578,-1.5806,-1.592,-1.596,-1.5992,-1.6027,-1.6197,-1.6251,-1.567,-1.567,-1.567,0,0,-1.4128,-1.4208,-1.4158,-1.4439,-1.4531,-1.4612,-1.4762,-1.4704,-1.4833,-1.4811,-1.4786,-1.4811,-1.507,-1.5116,-1.4968,-1.5423,-1.5263,-1.5299,-1.5386,-1.5436,-1.5474,-1.5463,-1.4811,0,0,0,0,0,-1.3951,-1.4197,-1.4151,-1.4198,-1.4432,-1.4636,-1.4666,-1.465,-1.4537,-1.4657,-1.4692,-1.4617,-1.5031,-1.49,-1.4949,-1.5118,-1.5529,-1.5554,-1.5578,-1.5761,-1.5813,-1.5857,0,0,0,0,0,0,-1.397,-1.4028,-1.4144,-1.4234,-1.4287,-1.4627,-1.4434,-1.4436,-1.4524,-1.4506,-1.4612,-1.462,-1.4612,-1.4873,-1.4918,-1.5079,-1.4796,-1.5539,-1.556,-1.5579,-1.5779,-1.5822,-1.5858,0,0,0,0,0,-1.3984,-1.4031,-1.441,-1.4231,-1.4277,-1.4313,-1.4424,-1.4425,-1.4493,-1.455,-1.4556,-1.4473,-1.4617,-1.4654,-1.49,-1.5059,-1.4765,-1.4782,-1.5553,-1.5569,-1.5584,-1.58,0,0,0,0,0,0,-1.3995,-1.4034,-1.4419,-1.4433,-1.4137,-1.4294,-1.4317,-1.4416,-1.4531,-1.4539,-1.4409,-1.4393,-1.4624,-1.4651,-1.468,-1.5053,-1.474,-1.4757,-1.4767,-1.5565,-1.5579,-1.559,0,0,0,0,0,0,-1.4009,-1.4046,-1.4426,-1.4308,-1.4308,-1.4276,-1.4298,-1.4504,-1.4534,-1.4383,-1.4373,-1.4401,-1.4582,-1.465,-1.4672,-1.4995,-1.472,-1.4737,-1.4748,-1.4755,-1.5576,-1.5586,0,0,0,0,0,0,-1.4024,-1.4056,-1.4305,-1.4305,-1.4304,-1.4453,-1.4458,-1.4701,-1.4429,-1.4379,-1.4405,-1.4394,-1.4584,-1.4605,-1.4668,-1.4981,-1.4991,-1.4721,-1.4732,-1.474,-1.4745,0,0,0,0,0,0,0,-1.4037,-1.3826,-1.4339,-1.4302,-1.4301,-1.4556,-1.456,-1.4564,-1.4427,-1.4417,-1.4408,-1.4398,-1.4627,-1.4645,-1.4663,-1.4971,0,0,-1.4719,-1.4727,0,0,0,0,0,0,0,0,-1.3812,-1.3822,-1.434,-1.4342,-1.4345,-1.4557,-1.456,-1.4563,-1.4425,-1.4417,-1.441,-1.4402,-1.4632,-1.4647,-1.4661,0,0,0,0,0,0,0,0,0,0,0,0,0,0,0,-1.434,-1.4342,0,-1.4557,-1.456,-1.4562,-1.4424,-1.4418,-1.4411,-1.4405,-1.4636,-1.4648,-1.466,0,0,0,0,0,0,0,0,0,0,0,0,0,0,0,0,0,0,0,0,0,0,0,0,0,0,0,0,0,0,0,0,0,0,0,0,0,0,0,0,0,0,0,0,0,0,0,0,0,0,0,0,0,0,0,0,0,0,0,0,0,0,0,0,0,0,0,0,0]}],[{"header":{"parameterUnit":"kt","parameterCategory":2,"dx":1,"dy":1,"la1":30.253999710083008,"la2":30.299108505249023,"lo1":-89.0895004272461,"lo2":-89.04439544677734,"nx":28,"ny":28,"refTime":"2022-10-19T09:00:00:Z","depth":0,"parameterNumber":2,"parameterNumberName":"V-component_of_WINDS"},"data":[-13.5087,-13.5405,-13.542,-13.5787,-13.5861,-13.6113,-13.6206,-13.6328,-13.6427,-13.6724,-13.6896,-13.6937,-13.7037,-13.7241,-13.7423,-13.7436,-13.7513,-13.7615,-13.7613,-13.7146,-13.7082,-13.702,-13.6947,-13.7632,-13.7633,-13.8094,-13.8099,-13.8102,-13.4741,-13.482,-13.5019,-13.5222,-13.5391,-13.5301,-13.5452,-13.5598,-13.5824,-13.5948,-13.6118,-13.6379,-13.6584,-13.6649,-13.6846,-13.6989,-13.6955,-13.7041,-13.703,-13.7046,-13.6548,-13.6471,-13.7066,-13.7065,-13.7065,-13.7065,-13.7065,-13.7065,-13.4116,-13.4306,-13.4438,-13.4654,-13.4759,-13.4893,-13.5074,-13.5124,-13.5315,-13.5528,-13.5503,-13.5757,-13.5879,-13.6122,-13.6204,-13.6398,-13.6303,-13.64,-13.6424,-13.6448,-13.6474,-13.5805,-13.6432,-13.643,-13.6428,-13.6427,-13.6426,0,-13.3662,-13.3661,-13.3853,-13.4051,-13.4208,-13.4361,-13.4501,-13.4614,-13.461,-13.4768,-13.4996,-13.5129,-13.5388,-13.5601,-13.5787,-13.5853,-13.5769,-13.5762,-13.5828,-13.5845,-13.5835,-13.5843,-13.5029,-13.5743,-13.5737,-13.5733,-13.573,-13.5728,-13.3031,-13.3252,-13.3395,-13.3528,-13.3609,-13.3823,-13.3952,-13.3933,-13.407,-13.4237,-13.4403,-13.4617,-13.4787,-13.5146,-13.5194,-13.5386,-13.5347,-13.5618,-13.5374,-13.5381,-13.5349,-13.5337,-13.5357,-13.5666,-13.5674,-13.568,-13.5685,0,-13.2674,-13.2696,-13.3041,-13.316,-13.3196,-13.3427,-13.3525,-13.3712,-13.3738,-13.3998,-13.4056,-13.4096,-13.4317,-13.4322,-13.4575,-13.457,-13.4942,-13.4899,-13.4899,-13.4891,-13.5134,-13.5111,-13.5924,-13.6029,-13.5319,-13.5326,-13.5332,0,-13.2143,-13.2433,-13.2448,-13.2647,-13.2967,-13.2941,-13.3257,-13.331,-13.3418,-13.3622,-13.3531,-13.3723,-13.3699,-13.3891,-13.3884,-13.4189,-13.4236,-13.425,-13.4244,-13.4258,-13.4257,-13.4327,-13.4294,-13.4224,-13.422,-13.4216,-13.4213,0,-13.1582,-13.1929,-13.2254,-13.2336,-13.249,-13.2642,-13.2712,-13.2831,-13.2957,-13.312,-13.3201,-13.3391,-13.3496,-13.3643,-13.3633,-13.3467,-13.4005,-13.3775,-13.4019,-13.402,-13.4137,-13.413,-13.485,-13.4208,-13.4207,-13.4205,-13.4204,0,-13.1155,-13.1327,-13.1795,-13.192,-13.2012,-13.2225,-13.2413,-13.2596,-13.2728,-13.2739,-13.2866,-13.2805,-13.3073,-13.2844,-13.3212,-13.2999,-13.3106,-13.3143,-13.3161,-13.3184,-13.2928,-13.3332,-13.4019,-13.409,-13.3206,-13.3198,-13.319,0,-13.0506,-13.0984,-13.0966,-13.141,-13.1631,-13.1514,-13.1749,-13.1869,-13.1903,-13.2092,-13.2126,-13.2341,-13.2172,-13.2239,-13.242,-13.2463,-13.274,-13.2426,-13.2692,-13.2702,-13.2661,-13.3293,-13.3394,-13.3868,-13.3084,-13.3095,-13.3103,0,-13.0005,-13.0193,-13.0274,-13.0366,-13.0525,-13.0709,-13.0979,-13.1187,-13.1314,-13.1459,-13.1683,-13.1984,-13.1868,-13.1981,-13.195,-13.2139,-13.2552,-13.1988,-13.199,-13.2089,-13.3031,-13.3125,-13.3205,-13.2488,-13.2501,-13.2512,-13.3019,0,-12.9355,-12.9597,-12.9816,-13.0024,-13.0167,-13.0445,-13.0455,-13.0602,-13.056,-13.0589,-13.0917,-13.1016,-13.1225,-13.1316,-13.1276,-13.1708,-13.1636,-13.1509,-13.1286,-13.1701,-13.1868,-13.1936,-13.1036,-13.103,-13.1024,-13.102,0,0,-12.8727,-12.9074,-12.9046,-12.9309,-12.9428,-12.9303,-12.9599,-12.9699,-12.9905,-12.9988,-12.9864,-13.0304,-13.039,-13.0787,-13.0917,-13.1002,-13.1078,-13.0933,-13.1504,-13.1558,-13.1607,-13.1786,-13.1857,-13.101,-13.1008,-13.1006,-13.1004,0,-12.8492,-12.859,-12.8885,-12.8989,-12.9141,-12.9159,-12.923,-12.9357,-12.9389,-12.9712,-12.9601,-12.9798,-13.0151,-13.0255,-13.0355,-13.0886,-13.0789,-13.0949,-13.1233,-13.1448,-13.1509,-13.1563,-13.1751,-13.1819,-13.0991,-13.0992,-13.0992,0,-12.8,-12.8096,-12.824,-12.8508,-12.8606,-12.8835,-12.8605,-12.8858,-12.9026,-12.8872,-12.9194,-12.925,-12.939,-12.9765,-12.9934,-12.9825,-13.0525,-13.0305,-13.034,-13.0359,-13.0567,-13.064,-13.0706,-12.9841,-12.9837,-12.9833,0,0,-12.7794,-12.8019,-12.8115,-12.8458,-12.8527,-12.8557,-12.868,-12.8651,-12.8782,-12.8835,-12.8905,-12.9033,-12.9237,-12.9372,-12.9564,-12.9975,-13.0001,-13.0164,-13.0218,-13.0262,-13.0305,-13.0524,-13.0597,-12.9818,-12.9818,-12.9817,0,0,-12.7695,-12.7821,-12.7756,-12.8155,-12.8286,-12.84,-12.8608,-12.8529,-12.8704,-12.8672,-12.863,-12.8663,-12.9013,-12.9072,-12.8868,-12.9483,-12.9262,-12.9311,-12.9433,-12.9501,-12.9555,-12.9533,-12.8642,0,0,0,0,0,-12.7459,-12.7805,-12.7745,-12.7813,-12.8149,-12.8434,-12.8476,-12.8452,-12.8297,-12.8461,-12.8506,-12.8395,-12.8953,-12.8772,-12.8838,-12.9065,-12.9623,-12.9657,-12.969,-12.9944,-13.0016,-13.0076,0,0,0,0,0,0,-12.7486,-12.757,-12.7736,-12.7865,-12.794,-12.8422,-12.8152,-12.8155,-12.8278,-12.8253,-12.839,-12.8399,-12.8381,-12.8736,-12.8796,-12.9012,-12.8622,-12.9636,-12.9666,-12.9692,-12.9968,-13.0027,-13.0077,0,0,0,0,0,-12.7507,-12.7574,-12.812,-12.786,-12.7925,-12.7976,-12.8139,-12.8139,-12.8234,-12.8305,-12.831,-12.8205,-12.8388,-12.8437,-12.8772,-12.8986,-12.858,-12.8603,-12.9655,-12.9678,-12.9699,-12.9997,0,0,0,0,0,0,-12.7522,-12.7575,-12.8133,-12.8151,-12.7728,-12.7949,-12.7983,-12.8126,-12.8276,-12.8286,-12.8115,-12.8093,-12.8397,-12.8433,-12.8471,-12.8978,-12.8546,-12.8569,-12.8583,-12.9673,-12.9691,-12.9707,0,0,0,0,0,0,-12.7538,-12.7592,-12.8142,-12.7977,-12.7977,-12.7923,-12.7954,-12.8234,-12.828,-12.8078,-12.8064,-12.8104,-12.8338,-12.8433,-12.8461,-12.89,-12.852,-12.8542,-12.8557,-12.8567,-12.9688,-12.9702,0,0,0,0,0,0,-12.756,-12.7606,-12.7972,-12.7972,-12.7971,-12.8179,-12.817,-12.8514,-12.8143,-12.8073,-12.8108,-12.8092,-12.8341,-12.8369,-12.8456,-12.8883,-12.8896,-12.8521,-12.8536,-12.8546,-12.8553,0,0,0,0,0,0,0,-12.7578,-12.7278,-12.8022,-12.7968,-12.7966,-12.8325,-12.833,-12.8336,-12.8139,-12.8126,-12.8112,-12.8099,-12.8395,-12.8419,-12.8443,-12.8869,0,0,-12.8518,-12.8529,0,0,0,0,0,0,0,0,-12.7257,-12.7273,-12.8023,-12.8026,-12.803,-12.8326,-12.833,-12.8334,-12.8137,-12.8126,-12.8115,-12.8104,-12.8401,-12.8421,-12.844,0,0,0,0,0,0,0,0,0,0,0,0,0,0,0,-12.8023,-12.8026,0,-12.8327,-12.833,-12.8334,-12.8135,-12.8126,-12.8117,-12.8108,-12.8407,-12.8423,-12.8439,0,0,0,0,0,0,0,0,0,0,0,0,0,0,0,0,0,0,0,0,0,0,0,0,0,0,0,0,0,0,0,0,0,0,0,0,0,0,0,0,0,0,0,0,0,0,0,0,0,0,0,0,0,0,0,0,0,0,0,0,0,0,0,0,0,0,0,0,0]}]]]